Hourly Data Report for October 30, 2014

All times are specified in Local Standard Time (LST). Add 1 hour to adjust for Daylight Saving Time where and when it is observed.

RANKIN INLET A
NUNAVUT

62°48'38.000" N
92°06'53.000" W
32.30 m
2303405
71083
YRT

Download Data

Hourly Data (October 2014)
Hourly Data Report for October 30, 2014
Temp Definition
°C
Dew Point Temp Definition
°C
Rel Hum Definition
%
Wind Dir Definition
10's deg

Wind Spd Definition
km/h
Visibility Definition
km
Stn Press Definition
kPa
Hmdx Definition


Wind Chill Definition


Weather Definition


TIME
00:00 Legend Double Dagger -10.0 -11.6 88 1 17 16.1 101.65   -17 Snow
01:00 Legend Double Dagger -11.2 -13.0 87 2 21 12.9 101.70   -20 Snow
02:00 Legend Double Dagger -11.6 -13.4 87 1 22 19.3 101.77   -20 Snow
03:00 Legend Double Dagger -11.9 -13.6 87 1 35 19.3 101.82   -23 Snow
04:00 Legend Double Dagger -12.3 -14.2 86 1 28 16.1 101.94   -22 Snow
05:00 Legend Double Dagger -14.7 -16.8 84 36 27 24.1 102.03   -25 Snow
06:00 Legend Double Dagger -16.1 -18.4 83 35 28 24.1 102.11   -27 Snow
07:00 Legend Double Dagger -17.5 -19.9 82 36 27 24.1 102.14   -29 LegendNANA
08:00 Legend Double Dagger -17.9 -20.4 81 35 25 24.1 102.18   -29 LegendNANA
09:00 Legend Double Dagger -18.9 -21.5 80 34 27 16.1 102.23   -31 Blowing Snow
10:00 Legend Double Dagger -18.1 -20.8 80 35 25 24.1 102.28   -29 LegendNANA
11:00 Legend Double Dagger -17.9 -20.4 81 35 19 24.1 102.30   -28 LegendNANA
12:00 Legend Double Dagger -16.6 -19.0 82 36 21 24.1 102.30   -26 Mainly Clear
13:00 Legend Double Dagger -16.7 -19.1 82 34 22 24.1 102.30   -27 LegendNANA
14:00 Legend Double Dagger -16.4 -18.8 82 32 18 24.1 102.34   -25 LegendNANA
15:00 Legend Double Dagger -17.0 -19.4 82 32 20 24.1 102.34   -27 Mainly Clear
16:00 Legend Double Dagger -17.8 -20.3 81 30 22 24.1 102.34   -28 LegendNANA
17:00 Legend Double Dagger -17.4 -19.9 81 30 18 24.1 102.32   -27 LegendNANA
18:00 Legend Double Dagger -16.6 -19.0 82 29 22 24.1 102.27   -27 Mainly Clear
19:00 Legend Double Dagger -15.8 -18.1 83 28 24 16.1 102.20   -26 Ice Crystals
20:00 Legend Double Dagger -15.3 -17.6 83 28 19 24.1 102.16   -24 Ice Crystals
21:00 Legend Double Dagger -17.3 -19.7 82 31 15 24.1 102.13   -26 Ice Crystals
22:00 Legend Double Dagger -17.3 -19.7 82 31 8 24.1 102.08   -23 Ice Crystals
23:00 Legend Double Dagger -16.2 -18.5 83 28 15 24.1 101.99   -24 Ice Crystals

Notes on Data Quality.

Legend

  • E = Estimated
  • M = Missing
  • NA = Not Available
  • ‡ = Partner data that is not subject to review by the National Climate Archives
Date modified: